Corona, CA

9:38 PM PST on November 18, 2017 (GMT -0800)
Corona Municipal

Weather History for KAJO - April, 2013

Change the Weather History Date:

Monday, April 15, 2013

  Actual Average (KCNO) Record (KCNO)
Temperature  
Mean Temperature 60 °F -  
Max Temperature 66 °F 71 °F 88 °F (1999)
Min Temperature 52 °F 42 °F 37 °F (2009)
Degree Days  
Heating Degree Days 6    
Growing Degree Days 10 (Base 50)    
Moisture  
Dew Point 47 °F    
Average Humidity 66    
Maximum Humidity 80    
Minimum Humidity 47    
Precipitation  
Precipitation 0.00 in - - ()
Sea Level Pressure  
Sea Level Pressure 29.86 in    
Wind  
Wind Speed 5 mph (WSW)    
Max Wind Speed 14 mph    
Max Gust Speed 18 mph    
Visibility 10 miles    
Events      
Averages and records for this station are not official NWS values.
T = Trace of Precipitation, MM = Missing Value Source: NWS Daily Summary

Daily Weather History Graph

Daily Weather History Graph

Search for Another Location

Airport or City:

Trip Planner

Search our weather history database for the weather conditions in past years. The results will help you decide how hot, cold, wet, or windy it might be!

Date:

Astronomy

Apr. 15, 2013 Rise Set
Actual Time 6:19 AM PDT 7:21 PM PDT
Civil Twilight 5:53 AM PDT 7:47 PM PDT
Nautical Twilight 5:23 AM PDT 8:18 PM PDT
Astronomical Twilight 4:51 AM PDT 8:49 PM PDT
Moon 9:57 AM PDT (4/15) No Moon Set
Length of Visible Light 13h 54m
Length of Day
13h 02m
Waxing Crescent, 25% of the Moon is Illuminated
Apr 15
Waxing Crescent
Apr 18
First Quarter
Apr 25
Full
May 2
Last Quarter
May 9
New

Hourly Weather History & Observations

Time (PDT) Temp. Dew Point Humidity Pressure Visibility Wind Dir Wind Speed Gust Speed Precip Events Conditions
12:56 AM 54.0 °F 47.8 °F 80% 29.85 in 10.0 mi West 5.8 mph - N/A   Mostly Cloudy
1:56 AM 54.9 °F 47.8 °F 77% 29.85 in 10.0 mi West 4.6 mph - N/A   Mostly Cloudy
2:56 AM 54.0 °F 46.9 °F 77% 29.84 in 10.0 mi West 4.6 mph - N/A   Mostly Cloudy
3:56 AM 54.9 °F 46.9 °F 75% 29.84 in 10.0 mi West 4.6 mph - N/A   Overcast
4:56 AM 54.0 °F 46.9 °F 77% 29.83 in 10.0 mi Calm Calm - N/A   Overcast
5:56 AM 54.0 °F 47.8 °F 80% 29.84 in 10.0 mi NW 3.5 mph - N/A   Overcast
6:56 AM 54.0 °F 47.8 °F 80% 29.85 in 10.0 mi Calm Calm - N/A   Overcast
7:56 AM 55.9 °F 47.8 °F 74% 29.87 in 10.0 mi Calm Calm - N/A   Mostly Cloudy
8:56 AM 56.8 °F 47.8 °F 72% 29.87 in 10.0 mi Calm Calm - N/A   Mostly Cloudy
9:56 AM 59.0 °F 46.9 °F 64% 29.88 in 10.0 mi WNW 4.6 mph - N/A   Mostly Cloudy
10:14 AM 60.8 °F 46.4 °F 59% 29.89 in 10.0 mi Variable 4.6 mph - N/A   Mostly Cloudy
10:46 AM 60.8 °F 46.4 °F 59% 29.90 in 10.0 mi WSW 5.8 mph - N/A   Mostly Cloudy
10:56 AM 61.0 °F 46.9 °F 60% 29.89 in 10.0 mi SW 6.9 mph - N/A   Mostly Cloudy
11:56 AM 61.0 °F 48.9 °F 64% 29.89 in 10.0 mi WSW 13.8 mph 18.4 mph N/A   Mostly Cloudy
12:56 PM 63.0 °F 48.9 °F 60% 29.89 in 10.0 mi WSW 9.2 mph - 0.00 in   Scattered Clouds
1:56 PM 61.9 °F 48.9 °F 62% 29.88 in 10.0 mi WSW 10.4 mph - N/A   Mostly Cloudy
2:56 PM 65.8 °F 46.9 °F 50% 29.85 in 10.0 mi SSW 9.2 mph 18.4 mph N/A   Clear
3:56 PM 65.8 °F 45.0 °F 47% 29.82 in 10.0 mi SSW 12.7 mph - N/A   Clear
4:56 PM 65.8 °F 45.0 °F 47% 29.81 in 10.0 mi SW 9.2 mph - N/A   Clear
5:56 PM 63.9 °F 45.9 °F 52% 29.81 in 10.0 mi WSW 8.1 mph - N/A   Clear
6:56 PM 59.9 °F 45.9 °F 60% 29.82 in 10.0 mi Variable 6.9 mph - N/A   Clear
7:56 PM 55.9 °F 45.9 °F 69% 29.83 in 10.0 mi West 6.9 mph - N/A   Clear
8:56 PM 54.9 °F 45.0 °F 69% 29.85 in 10.0 mi WSW 5.8 mph - N/A   Clear
9:56 PM 55.9 °F 45.0 °F 67% 29.87 in 10.0 mi NW 3.5 mph - N/A   Mostly Cloudy
10:56 PM 54.9 °F 43.9 °F 66% 29.88 in 10.0 mi Calm Calm - N/A   Mostly Cloudy
11:56 PM 52.9 °F 43.9 °F 71% 29.87 in 10.0 mi Calm Calm - N/A   Scattered Clouds